Location: Caltech
(34.1382°N, 118.1253°W)
Time: 23:09:23
(UTC-07:00)

Aureole 3 Rocket - Visible Passes

Search period start: 29 July 2015 00:00
Search period end: 08 August 2015 00:00
Orbit: 398 x 1751 km, 82.5° (Epoch: 28 July)

Date Brightness Start Highest point End Pass type
(mag) Time Alt. Az. Time Alt. Az. Time Alt. Az.
29 Jul 3.7 03:18:26 62° NW 03:18:26 62° NW 03:22:20 10° N visible
30 Jul 4.9 02:26:59 33° ENE 02:26:59 33° ENE 02:29:47 10° NNE visible
30 Jul 5.3 04:13:48 15° WNW 04:13:48 15° WNW 04:15:40 10° NW visible
31 Jul 6.1 01:35:29 10° ENE 01:35:29 10° ENE 01:35:34 10° ENE visible
31 Jul 4.5 03:22:17 33° NW 03:22:17 33° NW 03:24:54 10° N visible
01 Aug 5.0 02:30:45 29° NNE 02:30:45 29° NNE 02:32:43 10° NNE visible
02 Aug 6.1 01:39:10 11° NE 01:39:10 11° NE 01:39:17 10° NE visible
02 Aug 5.2 03:25:58 18° NW 03:25:58 18° NW 03:27:14 10° NNW visible
03 Aug 5.4 02:34:21 20° N 02:34:21 20° N 02:35:30 10° N visible
05 Aug 5.8 02:37:49 12° N 02:37:49 12° N 02:38:07 10° N visible
